Wind_Speed
24 24 24 23 23 23 23 23 23 23 24 24 24 24 25 26 26 27 28 29 29 30 30 30 29 29 29 30 30 30 30 30 31 32 31 31 31 31 31 32 32 32 32 32
25 25 24 24 24 24 24 24 24 24 23 24 24 24 24 24 25 27 27 28 28 30 30 30 30 29 29 30 29 29 29 29 30 32 32 31 31 31 31 31 31 32 32 32
26 25 24 24 24 24 25 25 24 24 23 24 25 24 24 24 25 26 27 27 28 28 29 30 30 30 29 29 29 29 29 30 30 31 32 32 32 32 32 32 32 32 32 32
26 25 25 25 25 25 24 24 24 23 23 23 24 25 23 23 23 25 25 26 27 28 28 29 29 29 29 29 28 29 29 30 30 31 31 32 32 32 32 32 32 33 33 33
26 25 24 24 24 24 24 23 23 23 23 23 23 25 22 22 23 23 24 25 26 27 27 28 28 28 28 28 29 30 30 30 30 30 30 31 32 32 32 32 32 32 32 33
25 24 24 23 23 24 24 23 24 24 23 24 23 24 23 22 22 23 23 25 25 26 27 28 28 28 28 29 29 29 30 30 30 30 30 30 31 31 32 31 31 32 32 33
25 25 25 24 23 23 23 24 24 24 24 24 23 24 23 23 23 23 23 24 25 25 26 27 27 28 28 28 28 28 29 29 30 31 31 30 31 32 31 31 31 32 32 32
26 25 25 25 24 24 24 24 25 25 26 25 25 25 24 24 23 23 24 24 25 25 26 26 27 27 28 28 28 28 29 29 30 31 31 31 31 32 32 31 32 32 32 32
27 27 26 26 25 25 25 25 25 26 26 26 26 26 25 25 25 24 23 24 24 25 25 26 27 28 28 28 28 28 29 29 30 31 30 31 31 32 32 32 32 33 32 32
28 29 28 28 27 26 26 26 26 27 27 27 26 25 24 24 24 24 24 24 24 24 25 26 27 28 29 29 29 29 29 30 30 31 31 31 31 31 32 33 33 33 33 33
30 30 29 29 28 28 26 26 27 28 29 29 28 26 25 25 25 24 24 25 26 25 26 27 27 28 29 29 30 30 30 31 31 32 32 32 32 32 32 33 33 32 33 33
31 31 30 30 29 29 28 27 27 28 29 30 30 28 26 25 25 26 26 26 27 26 26 27 28 28 29 29 30 30 31 32 32 33 33 33 33 33 33 33 33 32 32 33
31 31 31 30 30 30 29 29 29 30 30 30 30 28 27 27 27 27 27 27 27 28 28 29 29 29 30 30 30 31 31 32 33 34 34 33 33 34 33 32 32 32 32 32
33 32 31 31 32 31 30 30 30 30 31 31 31 29 28 30 29 28 28 28 29 29 29 29 30 31 31 31 31 32 32 32 33 33 34 33 33 34 34 33 33 33 32 32
35 34 33 32 33 33 32 31 31 32 32 32 30 30 29 30 30 29 29 30 30 30 30 30 30 31 32 32 31 32 32 32 32 33 33 34 34 34 34 34 33 33 33 33
33 35 34 34 33 34 33 32 32 32 32 32 32 30 29 30 30 30 30 31 32 31 31 30 30 31 31 31 31 31 32 32 32 32 32 32 32 32 33 33 33 33 34 34
34 35 35 35 34 34 34 31 32 33 32 31 32 31 30 31 31 31 31 31 32 32 32 31 31 31 31 31 31 32 32 32 32 32 33 33 33 34 34 34 35 34 34 35
34 35 36 36 35 35 33 31 32 33 33 34 34 33 32 32 32 33 32 32 32 32 33 33 32 31 32 32 32 32 33 33 33 33 34 35 35 36 36 35 35 35 35 36
34 34 36 37 37 36 34 33 33 34 34 34 34 34 33 33 33 33 33 32 32 33 33 34 34 33 34 34 34 34 34 34 35 35 36 36 36 36 36 36 36 36 37 37
33 34 35 36 37 36 33 32 32 33 34 34 34 34 33 33 35 34 34 34 34 34 34 35 35 35 35 35 35 36 36 36 36 36 37 37 37 37 38 38 38 39 39 39
34 34 35 35 37 37 34 33 33 34 35 35 35 35 35 35 36 35 35 36 36 36 36 37 38 38 37 37 37 37 37 37 38 38 38 39 38 38 39 39 40 40 40 40
35 35 35 35 37 37 36 35 35 35 35 35 36 36 36 37 37 37 37 38 38 38 37 37 38 39 39 39 39 39 39 39 39 39 39 40 40 40 40 41 41 42 42 42
36 35 35 35 35 35 36 37 37 37 37 37 37 38 38 38 39 39 39 40 40 39 39 38 38 39 40 41 41 41 40 40 40 40 40 40 41 41 42 42 42 43 43 44
37 36 36 36 35 35 35 37 38 39 39 39 39 39 39 40 40 41 41 41 41 41 40 39 39 39 40 41 42 41 41 41 41 41 41 41 42 42 42 43 43 44 44 45
38 37 37 38 37 38 38 38 39 40 41 40 39 39 40 41 41 42 42 42 42 42 42 41 41 40 41 41 42 42 42 42 42 43 43 43 43 43 43 43 44 44 44 45
37 38 39 39 39 40 40 40 40 41 42 42 41 41 41 42 43 43 42 42 42 42 42 43 43 43 42 42 42 42 42 42 42 42 43 43 43 43 43 43 43 44 45 45
Wind_Direction
272 272 273 276 277 278 282 283 284 282 280 277 272 266 261 262 261 256 256 255 253 252 251 251 252 254 255 255 256 255 255 254 255 256 258 260 261 263 265 265 266 266 266 267
272 271 273 276 276 276 278 280 281 280 279 277 272 265 261 263 263 260 258 256 254 253 252 251 252 255 257 257 257 256 257 257 259 259 259 261 262 263 263 263 265 266 266 266
275 273 272 273 274 275 277 278 278 278 279 277 274 269 263 262 265 264 261 259 257 254 253 251 252 255 257 257 258 258 259 259 261 262 261 262 264 263 262 263 264 266 267 266
273 272 271 271 273 275 276 276 275 275 276 276 275 274 268 266 268 267 264 262 259 259 255 253 253 255 258 257 258 258 259 260 261 262 262 263 264 264 263 263 265 267 267 267
273 271 271 270 271 272 274 273 273 273 274 275 274 275 271 268 268 268 266 264 261 259 256 254 254 256 256 257 258 259 259 261 262 263 263 263 264 264 264 264 265 265 266 267
273 271 270 270 270 270 272 271 272 272 273 274 274 275 274 274 273 270 267 264 261 259 256 256 257 257 257 259 260 261 261 262 262 263 264 265 264 263 264 264 265 265 266 267
273 270 269 269 269 269 269 269 270 271 271 274 275 275 275 274 274 273 269 265 261 259 258 259 260 260 260 260 261 262 262 262 263 264 265 265 265 264 265 265 265 266 267 267
273 270 268 268 269 270 269 269 268 270 271 274 274 274 272 274 274 275 272 268 265 262 261 261 261 261 261 261 262 263 263 263 263 264 265 266 265 266 266 267 267 266 266 267
273 271 268 267 266 267 269 268 268 270 272 275 274 273 272 273 272 273 273 270 267 264 263 263 263 264 264 263 264 265 264 263 263 264 265 267 267 267 267 269 269 268 268 267
272 271 267 267 266 264 268 268 267 267 270 274 275 274 274 274 275 272 273 271 269 266 265 265 265 266 266 265 265 265 264 263 263 264 265 266 267 268 269 270 269 268 267 267
272 271 268 266 266 266 266 267 266 268 268 271 273 274 275 275 275 275 272 270 270 268 267 268 268 267 267 266 266 266 265 263 263 264 266 267 267 269 271 271 269 269 267 266
272 272 269 266 266 265 265 265 265 265 267 269 271 272 273 274 274 273 272 271 269 268 269 270 270 268 268 269 268 268 267 265 264 264 266 267 267 268 271 271 269 269 269 268
271 272 271 267 265 265 264 264 266 267 267 268 269 271 272 273 272 271 270 271 270 270 270 270 270 270 270 270 269 268 268 266 265 265 266 268 268 269 270 270 270 270 270 270
267 267 268 268 268 268 265 264 265 267 268 268 268 269 270 271 272 271 270 270 271 270 270 270 270 270 270 271 270 269 269 268 267 267 267 268 269 270 270 271 271 270 270 269
265 265 265 265 265 265 265 263 264 265 267 268 268 268 268 269 271 272 270 270 270 269 269 270 270 270 271 272 272 271 270 270 269 268 268 269 271 271 271 271 271 270 269 268
264 264 265 264 265 264 263 263 262 264 267 270 269 267 267 268 269 270 270 269 270 270 270 270 269 270 271 271 271 271 270 270 270 269 269 271 272 272 272 271 269 269 268 268
264 266 266 265 264 264 263 263 263 264 266 268 269 267 265 266 268 269 270 269 269 268 268 268 268 269 270 270 271 272 272 271 271 270 270 272 272 273 273 272 270 269 269 269
264 265 266 265 265 264 266 265 264 264 265 266 267 266 265 266 267 268 268 269 268 267 266 265 266 267 268 269 270 271 272 272 272 272 271 273 273 273 273 272 271 270 270 270
264 264 265 266 266 267 266 266 267 266 265 266 267 266 267 265 265 266 267 268 268 267 267 266 266 267 269 269 269 270 271 272 273 273 272 273 273 273 272 271 271 271 271 272
264 264 265 265 265 267 268 267 268 269 267 267 267 267 267 266 265 266 267 269 269 268 268 268 268 268 269 269 270 270 271 272 273 273 272 272 272 272 271 271 271 272 272 273
263 263 263 263 264 264 266 267 268 268 269 268 268 268 268 267 267 268 269 270 272 272 271 270 269 269 270 270 270 271 271 271 272 273 273 272 272 273 273 272 272 273 273 273
268 267 266 265 265 265 265 265 265 268 269 269 269 268 269 269 268 269 269 271 273 273 273 272 271 270 270 270 270 271 271 271 272 273 273 273 273 273 274 274 273 274 274 274
268 269 269 268 268 268 266 265 265 266 268 270 270 270 270 270 270 270 270 270 272 272 272 272 271 270 270 270 270 271 271 271 272 273 273 273 273 274 274 274 275 275 275 275
268 268 268 268 267 266 267 266 266 266 268 270 271 271 271 270 270 270 270 270 270 270 271 272 271 271 270 270 269 270 271 271 272 273 274 274 273 273 274 274 275 275 275 275
269 269 268 268 267 266 266 267 268 268 269 269 270 271 270 270 270 270 270 270 270 270 270 270 271 272 272 271 270 270 271 272 273 273 274 274 274 273 274 274 275 276 276 276
268 269 269 269 268 267 267 268 269 269 270 270 269 269 269 270 271 271 271 271 270 271 270 271 272 272 272 272 271 271 271 272 273 274 274 274 274 274 274 274 275 276 277 277
Height
5704 5705 5703 5704 5703 5702 5700 5699 5698 5698 5697 5696 5696 5697 5699 5699 5700 5701 5703 5704 5705 5707 5709 5711 5713 5715 5716 5718 5720 5721 5723 5725 5727 5728 5729 5730 5731 5732 5732 5733 5734 5734 5735 5735
5699 5698 5699 5698 5697 5696 5695 5694 5693 5693 5692 5691 5691 5691 5693 5693 5694 5695 5697 5698 5699 5701 5703 5705 5707 5709 5710 5712 5714 5715 5717 5718 5720 5721 5722 5723 5724 5725 5725 5726 5726 5727 5727 5728
5692 5694 5692 5692 5691 5690 5690 5689 5689 5688 5687 5686 5685 5686 5688 5689 5689 5690 5691 5692 5693 5695 5697 5699 5701 5703 5704 5706 5707 5709 5710 5711 5713 5714 5715 5715 5716 5717 5717 5718 5718 5719 5719 5720
5686 5687 5686 5686 5685 5685 5684 5684 5683 5682 5681 5680 5681 5680 5683 5684 5684 5684 5685 5686 5687 5689 5690 5692 5694 5696 5698 5699 5700 5702 5703 5704 5705 5706 5707 5708 5708 5709 5709 5710 5710 5711 5711 5711
5680 5681 5680 5680 5680 5679 5679 5679 5678 5677 5675 5675 5675 5675 5678 5678 5679 5679 5680 5680 5682 5683 5684 5686 5688 5690 5691 5692 5693 5695 5696 5697 5698 5699 5699 5700 5700 5701 5701 5701 5702 5702 5702 5703
5674 5674 5674 5674 5674 5674 5673 5674 5673 5671 5670 5670 5671 5670 5672 5673 5674 5674 5674 5674 5675 5677 5679 5680 5682 5683 5684 5686 5687 5688 5689 5690 5690 5691 5691 5692 5692 5692 5693 5693 5693 5694 5694 5694
5668 5668 5668 5668 5668 5668 5668 5668 5667 5665 5664 5665 5666 5664 5667 5669 5669 5668 5668 5669 5669 5671 5672 5674 5675 5676 5678 5679 5680 5681 5682 5682 5683 5683 5684 5684 5684 5684 5684 5685 5685 5685 5685 5686
5661 5662 5662 5662 5662 5662 5661 5661 5661 5660 5659 5660 5660 5659 5662 5663 5663 5663 5663 5663 5663 5664 5666 5667 5668 5670 5671 5672 5673 5673 5674 5675 5675 5675 5676 5676 5676 5676 5676 5676 5676 5676 5677 5677
5654 5655 5656 5655 5655 5656 5655 5655 5656 5655 5654 5653 5653 5655 5657 5657 5657 5657 5657 5657 5658 5659 5659 5661 5661 5663 5664 5665 5665 5666 5666 5667 5667 5667 5667 5667 5667 5667 5667 5667 5667 5667 5667 5668
5646 5647 5648 5648 5649 5649 5649 5649 5649 5648 5647 5647 5648 5649 5651 5651 5651 5651 5651 5651 5651 5652 5653 5654 5655 5656 5656 5657 5658 5658 5658 5659 5659 5659 5659 5659 5658 5658 5658 5658 5658 5658 5658 5658
5639 5639 5640 5641 5641 5642 5643 5643 5642 5642 5641 5641 5641 5646 5645 5645 5645 5645 5645 5645 5645 5646 5646 5647 5647 5648 5648 5649 5649 5650 5650 5650 5650 5650 5650 5650 5650 5650 5649 5649 5649 5648 5648 5648
5631 5631 5631 5633 5634 5634 5634 5635 5636 5636 5635 5635 5635 5640 5639 5639 5639 5638 5638 5638 5638 5639 5639 5640 5640 5640 5641 5641 5641 5641 5641 5641 5641 5641 5641 5640 5640 5641 5640 5640 5640 5639 5639 5639
5623 5623 5623 5625 5628 5627 5627 5628 5628 5628 5628 5627 5628 5634 5633 5632 5632 5631 5631 5631 5631 5631 5632 5632 5632 5632 5633 5632 5632 5632 5632 5632 5632 5632 5632 5632 5631 5631 5631 5631 5630 5630 5630 5630
5614 5614 5616 5617 5617 5618 5618 5620 5620 5620 5619 5620 5622 5625 5626 5624 5624 5624 5624 5623 5623 5623 5624 5624 5624 5624 5624 5624 5624 5623 5623 5622 5622 5622 5622 5622 5622 5622 5621 5621 5621 5621 5621 5621
5604 5605 5606 5607 5608 5609 5609 5611 5611 5611 5612 5613 5615 5616 5618 5617 5616 5616 5616 5615 5616 5616 5616 5616 5615 5615 5615 5615 5614 5614 5613 5613 5613 5613 5613 5613 5612 5612 5611 5611 5611 5611 5611 5611
5594 5595 5597 5598 5599 5599 5600 5602 5603 5603 5604 5604 5606 5608 5609 5608 5607 5607 5607 5607 5607 5607 5607 5607 5607 5607 5606 5606 5605 5605 5604 5604 5603 5603 5603 5603 5603 5602 5601 5601 5601 5601 5601 5601
5586 5586 5587 5588 5590 5589 5591 5595 5595 5595 5596 5597 5596 5599 5599 5599 5599 5598 5599 5599 5599 5599 5599 5598 5598 5598 5598 5597 5597 5596 5595 5595 5594 5594 5594 5594 5593 5592 5592 5591 5591 5591 5591 5591
5577 5577 5577 5578 5580 5580 5586 5586 5586 5586 5587 5587 5588 5589 5590 5590 5590 5589 5590 5590 5590 5590 5590 5589 5589 5589 5589 5588 5588 5587 5587 5586 5585 5584 5584 5584 5583 5583 5582 5582 5582 5581 5582 5581
5567 5568 5568 5568 5568 5570 5575 5577 5576 5576 5577 5579 5578 5579 5580 5580 5580 5580 5580 5580 5580 5580 5580 5579 5579 5579 5579 5578 5578 5578 5577 5576 5575 5575 5574 5573 5573 5572 5572 5572 5571 5571 5571 5571
5558 5558 5559 5559 5559 5561 5566 5567 5566 5567 5567 5570 5569 5570 5570 5570 5570 5572 5571 5570 5570 5570 5569 5569 5569 5569 5568 5568 5567 5567 5567 5566 5565 5564 5563 5562 5562 5561 5561 5561 5561 5560 5560 5559
5549 5548 5549 5549 5549 5551 5556 5556 5556 5558 5559 5559 5559 5559 5560 5559 5560 5560 5560 5559 5559 5559 5559 5558 5558 5558 5557 5557 5556 5556 5555 5555 5554 5553 5552 5551 5551 5550 5550 5549 5549 5548 5548 5547
5538 5539 5540 5540 5540 5545 5545 5546 5547 5547 5547 5547 5548 5548 5548 5548 5548 5548 5548 5548 5548 5547 5547 5547 5546 5546 5546 5545 5545 5544 5543 5543 5542 5541 5540 5539 5539 5538 5538 5537 5537 5536 5535 5535
5528 5529 5529 5531 5533 5534 5534 5534 5535 5536 5536 5536 5536 5537 5537 5537 5537 5536 5536 5536 5536 5536 5535 5535 5534 5534 5533 5533 5532 5532 5531 5530 5529 5529 5528 5527 5526 5526 5525 5524 5524 5523 5522 5521
5517 5518 5518 5519 5522 5523 5523 5523 5523 5524 5524 5524 5524 5525 5525 5525 5525 5525 5524 5524 5523 5523 5523 5522 5522 5521 5520 5520 5519 5519 5518 5517 5517 5516 5515 5514 5514 5513 5512 5511 5510 5509 5508 5507
5506 5507 5507 5508 5511 5511 5512 5512 5512 5512 5512 5512 5513 5512 5512 5512 5512 5512 5511 5511 5511 5510 5510 5509 5509 5508 5507 5507 5506 5505 5504 5504 5503 5502 5502 5501 5500 5500 5499 5498 5496 5495 5494 5493
5495 5496 5496 5497 5499 5499 5500 5500 5500 5500 5499 5499 5500 5500 5499 5498 5498 5498 5498 5498 5497 5497 5496 5496 5495 5494 5494 5493 5492 5491 5491 5490 5490 5489 5488 5487 5486 5486 5485 5484 5483 5481 5480 5479